Lid_Strength_Index
-1 -1 -1 -1 -1 -1 -1 -1 -1 -1 -1 -1 -1 -1 -1 -1 -1 1 5 3 2 -1 -1 4 4 4 4 5 6 6 7 9 8 9 8 7 7 7 6 6 6 5 5 4 1
-1 -1 -1 -1 -1 -1 -1 -1 -1 -1 -1 -1 -1 -1 -1 -1 2 4 0 -2 -1 -1 4 5 5 5 5 6 6 6 7 8 7 7 7 7 7 7 7 7 6 6 6 4 2
-1 -1 -0 -0 -0 -1 -1 -1 -1 -1 -1 -1 -1 -1 -1 -0 5 5 -1 -2 -2 1 3 4 5 5 6 6 7 8 8 8 8 7 7 7 7 7 7 8 6 6 5 5 3
-1 -0 -0 -0 -0 -0 -0 -1 -1 -1 -1 -1 -1 -1 -1 2 10 4 -0 -1 -1 2 4 5 6 6 7 8 7 8 8 8 7 7 7 8 7 7 7 6 6 5 5 4 3
-1 -0 -0 -0 -0 -0 -0 -0 -0 -0 -1 -1 -1 -1 1 5 5 2 0 1 3 4 5 6 6 7 8 7 8 8 8 8 7 7 7 8 7 7 7 5 6 7 6 5 3
-0 -0 -0 0 -0 -0 -0 -0 -0 -0 -0 -1 -1 -1 4 8 2 3 4 3 4 5 5 5 6 6 7 8 8 7 8 8 7 7 7 8 7 8 6 6 6 7 6 5 4
-1 -1 -0 0 0 0 0 -0 -0 -0 -0 -1 -1 2 5 7 2 3 4 4 4 4 5 5 5 6 6 7 7 8 8 8 8 8 8 8 9 9 6 7 6 6 6 6 5
0 0 0 -0 -0 -0 -0 0 -0 -0 -0 -1 -1 3 8 3 1 4 4 4 4 4 4 5 4 5 6 7 7 8 8 10 9 9 8 8 10 8 8 7 7 6 6 6 6
1 1 1 1 1 0 0 -0 -0 -0 -1 -1 3 5 8 2 3 3 4 5 5 5 5 5 5 7 7 8 9 9 11 10 10 9 9 9 9 8 8 8 7 6 6 6 6
1 1 1 1 1 1 1 -0 -0 -0 1 3 4 8 7 6 4 4 4 5 5 6 6 6 7 7 8 9 12 11 11 11 11 9 10 9 9 7 7 8 7 6 6 6 6
1 1 1 1 1 1 2 3 6 7 4 8 8 8 7 4 3 5 4 5 6 6 8 8 9 10 8 8 10 10 11 11 10 10 10 9 9 8 7 7 7 7 6 6 6
2 1 1 1 1 1 2 6 6 4 7 6 6 7 5 4 6 5 4 6 7 9 9 9 10 8 9 9 10 10 11 11 10 10 10 10 10 8 7 7 7 6 6 6 5
2 2 1 1 1 2 3 5 3 3 8 8 6 6 7 5 7 6 5 7 8 10 9 10 9 9 9 11 11 10 11 11 11 11 10 11 11 9 8 8 7 7 6 6 5
3 2 1 1 2 2 3 2 2 4 10 9 9 7 6 5 8 6 5 6 8 9 9 9 9 10 10 11 10 12 9 11 11 11 13 11 14 10 9 9 8 7 6 6 6
3 3 1 0 3 3 2 2 2 3 19 8 9 5 6 8 8 7 6 6 9 9 9 10 10 10 10 10 9 10 10 10 11 11 12 12 14 11 11 10 9 7 6 5 5
3 3 3 2 2 2 1 2 3 13 19 10 9 9 9 9 9 8 7 6 7 9 9 10 9 9 9 10 9 10 10 10 11 11 14 12 13 12 11 10 9 8 7 6 6
2 2 4 3 4 0 1 3 13 17 10 11 11 10 10 11 10 9 9 9 10 12 12 11 10 9 9 10 9 10 10 14 15 16 16 14 14 12 10 9 9 8 6 6 7
2 2 3 4 2 1 3 9 17 14 12 9 10 11 11 10 11 10 10 11 9 11 12 13 14 10 9 9 10 10 10 13 17 16 15 15 16 12 9 8 8 8 7 7 7
3 3 3 2 2 1 6 15 13 11 9 10 10 12 12 11 11 11 11 11 9 10 12 13 13 10 10 9 8 11 12 9 13 17 15 13 12 10 10 10 9 8 8 7 7
3 5 5 1 0 3 9 12 11 8 8 9 13 11 13 12 13 12 12 10 11 9 8 11 14 12 11 9 9 10 9 13 13 19 18 14 14 13 10 9 8 9 8 7 7
4 7 4 1 -0 6 13 12 9 7 7 10 11 12 11 12 11 13 12 11 10 10 9 10 12 13 11 12 12 11 12 12 12 13 16 16 14 10 9 9 9 8 8 8 7
5 9 3 -0 8 8 11 9 7 8 6 7 8 9 10 10 12 12 12 10 10 10 12 10 12 14 13 12 11 11 11 11 13 16 14 15 13 10 8 8 8 8 8 7 8
7 7 3 2 11 10 8 8 7 8 8 9 9 8 8 11 14 11 10 9 9 10 10 10 13 17 15 13 12 13 12 11 11 12 15 16 13 9 9 9 8 8 8 8 7
7 10 7 6 5 8 9 9 10 7 8 7 8 8 9 10 9 11 10 8 9 9 8 8 12 14 16 13 12 14 13 12 12 14 14 13 12 9 9 9 8 8 7 7 7
6 10 8 11 10 8 8 9 10 10 7 7 9 9 10 12 11 12 10 9 8 9 10 9 13 12 11 10 12 12 12 12 13 12 13 12 12 10 9 8 8 7 7 7 7
9 9 9 9 9 9 9 10 10 9 8 9 10 9 9 11 10 11 10 10 11 9 10 9 14 12 14 11 11 13 11 11 11 11 11 11 11 8 7 7 8 8 8 8 7
5 5 7 9 10 10 10 10 10 8 8 7 8 10 10 9 7 7 7 7 8 10 10 11 13 14 17 13 13 16 13 12 11 10 10 13 10 7 8 8 8 8 7 8 7